Pontiac, MI

9:03 PM EDT on April 30, 2017 (GMT -0400)
Oakland County International

Weather History for KPTK - October, 2013

Change the Weather History Date:

Sunday, October 6, 2013

  Actual Average Record
Temperature  
Mean Temperature 62 °F -  
Max Temperature 69 °F 62 °F 87 °F (2007)
Min Temperature 54 °F 42 °F 32 °F (2003)
Degree Days  
Heating Degree Days 3    
Growing Degree Days 12 (Base 50)    
Moisture  
Dew Point 62 °F    
Average Humidity 90    
Maximum Humidity 100    
Minimum Humidity 78    
Precipitation  
Precipitation 0.33 in - - ()
Sea Level Pressure  
Sea Level Pressure 29.76 in    
Wind  
Wind Speed 7 mph (South)    
Max Wind Speed 18 mph    
Max Gust Speed 30 mph    
Visibility 8 miles    
Events Rain    
Averages and records for this station are not official NWS values.
T = Trace of Precipitation, MM = Missing Value Source: NWS Daily Summary

Daily Weather History Graph

Daily Weather History Graph

Search for Another Location

Airport or City:

Trip Planner

Search our weather history database for the weather conditions in past years. The results will help you decide how hot, cold, wet, or windy it might be!

Date:

Astronomy

Oct. 06, 2013 Rise Set
Actual Time 7:36 AM EDT 7:05 PM EDT
Civil Twilight 7:08 AM EDT 7:34 PM EDT
Nautical Twilight 6:35 AM EDT 8:06 PM EDT
Astronomical Twilight 6:02 AM EDT 8:39 PM EDT
Moon 9:23 AM EDT (10/6) 8:01 PM EDT (10/6)
Length of Visible Light 12h 25m
Length of Day
11h 29m
Waxing Crescent, 3% of the Moon is Illuminated
Oct 6
Waxing Crescent
Oct 11
First Quarter
Oct 18
Full
Oct 26
Last Quarter
Nov 3
New

Hourly Weather History & Observations

Time (EDT) Temp. Dew Point Humidity Pressure Visibility Wind Dir Wind Speed Gust Speed Precip Events Conditions
12:17 AM 66.2 °F 66.2 °F 100% 29.87 in 2.5 mi SE 6.9 mph - N/A   Overcast
12:53 AM 66.9 °F 66.0 °F 97% 29.84 in 2.0 mi SE 8.1 mph - N/A   Overcast
1:37 AM 66.2 °F 66.2 °F 100% 29.85 in 1.8 mi SE 6.9 mph - 0.00 in   Overcast
1:44 AM 66.2 °F 66.2 °F 100% 29.85 in 2.0 mi SSE 5.8 mph - 0.00 in   Overcast
1:53 AM 66.9 °F 66.0 °F 97% 29.84 in 2.5 mi SSE 4.6 mph - 0.00 in   Overcast
2:03 AM 68.0 °F 66.2 °F 94% 29.85 in 3.0 mi SE 4.6 mph - N/A   Overcast
2:28 AM 68.0 °F 66.2 °F 94% 29.85 in 4.0 mi South 4.6 mph - N/A   Overcast
2:53 AM 69.1 °F 66.9 °F 93% 29.83 in 5.0 mi South 6.9 mph - N/A   Overcast
3:21 AM 69.8 °F 66.2 °F 88% 29.83 in 6.0 mi South 6.9 mph - N/A   Mostly Cloudy
3:53 AM 69.1 °F 66.0 °F 90% 29.81 in 6.0 mi South 4.6 mph - N/A   Overcast
3:58 AM 69.8 °F 66.2 °F 88% 29.83 in 6.0 mi South 6.9 mph - N/A   Overcast
4:53 AM 68.0 °F 66.0 °F 93% 29.81 in 8.0 mi South 5.8 mph - N/A   Overcast
5:21 AM 68.0 °F 66.2 °F 94% 29.81 in 8.0 mi South 5.8 mph - N/A   Overcast
5:33 AM 68.0 °F 64.4 °F 88% 29.81 in 8.0 mi South 8.1 mph - N/A   Overcast
5:42 AM 68.0 °F 64.4 °F 88% 29.81 in 9.0 mi South 6.9 mph - N/A   Overcast
5:53 AM 68.0 °F 64.9 °F 90% 29.79 in 9.0 mi South 5.8 mph - N/A   Overcast
5:55 AM 68.0 °F 64.4 °F 88% 29.81 in 9.0 mi South 6.9 mph - N/A   Overcast
5:58 AM 68.0 °F 64.4 °F 88% 29.81 in 10.0 mi South 6.9 mph - N/A   Overcast
6:53 AM 66.9 °F 64.0 °F 90% 29.79 in 10.0 mi South 6.9 mph - 0.00 in Rain Light Rain
7:00 AM 66.2 °F 64.4 °F 94% 29.81 in 10.0 mi SSW 6.9 mph - 0.00 in Rain Light Rain
7:34 AM 66.2 °F 62.6 °F 88% 29.81 in 10.0 mi SW 5.8 mph - 0.00 in   Overcast
7:53 AM 66.9 °F 63.0 °F 87% 29.80 in 10.0 mi SW 5.8 mph - 0.00 in   Overcast
8:53 AM 66.0 °F 64.0 °F 93% 29.79 in 10.0 mi South 5.8 mph - N/A   Overcast
9:33 AM 66.2 °F 64.4 °F 94% 29.79 in 10.0 mi South 9.2 mph - N/A   Overcast
9:53 AM 66.9 °F 63.0 °F 87% 29.77 in 10.0 mi South 9.2 mph - N/A   Overcast
10:53 AM 66.9 °F 63.0 °F 87% 29.75 in 10.0 mi South 6.9 mph - 0.00 in Rain Light Rain
11:53 AM 66.9 °F 64.0 °F 90% 29.75 in 10.0 mi South 8.1 mph - 0.01 in Rain Light Rain
12:53 PM 66.9 °F 64.0 °F 90% 29.75 in 10.0 mi South 5.8 mph - 0.01 in Rain Light Rain
1:41 PM 68.0 °F 64.4 °F 88% 29.73 in 10.0 mi SSW 6.9 mph - 0.00 in Rain Light Rain
1:53 PM 68.0 °F 63.0 °F 84% 29.72 in 10.0 mi South 11.5 mph - 0.01 in Rain Light Rain
2:31 PM 68.0 °F 62.6 °F 83% 29.70 in 10.0 mi South 8.1 mph - 0.00 in   Light Drizzle
2:53 PM 68.0 °F 63.0 °F 84% 29.68 in 10.0 mi South 8.1 mph - 0.00 in   Overcast
3:00 PM 68.0 °F 62.6 °F 83% 29.69 in 10.0 mi SSW 9.2 mph - N/A   Overcast
3:53 PM 69.1 °F 62.1 °F 78% 29.67 in 10.0 mi South 9.2 mph - N/A   Overcast
4:53 PM 68.0 °F 63.0 °F 84% 29.65 in 10.0 mi South 6.9 mph - 0.00 in Rain Light Rain
5:35 PM 66.2 °F 64.4 °F 94% 29.64 in 10.0 mi ESE 6.9 mph - 0.01 in Rain Light Rain
5:53 PM 66.9 °F 64.0 °F 90% 29.62 in 10.0 mi ESE 3.5 mph - 0.01 in Rain Light Rain
6:02 PM 66.2 °F 64.4 °F 94% 29.64 in 1.5 mi Calm Calm - 0.06 in Rain Heavy Rain
6:11 PM 60.8 °F 57.2 °F 88% 29.68 in 2.5 mi West 18.4 mph 28.8 mph 0.24 in Rain Heavy Rain
6:19 PM 59.0 °F 55.4 °F 88% 29.67 in 5.0 mi WNW 16.1 mph 29.9 mph 0.24 in Rain Light Rain
6:53 PM 57.9 °F 55.9 °F 93% 29.68 in 8.0 mi West 9.2 mph - 0.24 in Rain Light Rain
7:14 PM 57.2 °F 55.4 °F 94% 29.67 in 4.0 mi NW 4.6 mph - 0.02 in Rain Light Rain
7:53 PM 57.9 °F 55.9 °F 93% 29.68 in 10.0 mi West 6.9 mph - 0.02 in   Overcast
8:04 PM 57.2 °F 55.4 °F 94% 29.68 in 10.0 mi West 10.4 mph - N/A   Overcast
8:53 PM 57.0 °F 55.0 °F 93% 29.71 in 10.0 mi WSW 9.2 mph - 0.03 in Rain Light Rain
9:03 PM 57.2 °F 53.6 °F 88% 29.72 in 10.0 mi West 10.4 mph 21.9 mph 0.00 in Rain Light Rain
9:53 PM 55.9 °F 52.0 °F 87% 29.71 in 10.0 mi West 9.2 mph - 0.00 in   Overcast
10:16 PM 55.4 °F 51.8 °F 88% 29.71 in 10.0 mi West 5.8 mph - N/A   Overcast
10:53 PM 55.0 °F 51.1 °F 86% 29.72 in 10.0 mi Calm Calm - N/A   Overcast
11:53 PM 54.0 °F 52.0 °F 93% 29.71 in 10.0 mi SW 3.5 mph - N/A   Overcast